User: anonymous   Login
Location: Betra
(48.4113°N, 8.6634°E)
Time: 17:58:11
(UTC+00:00)
Language:

Cosmos 2074 Rocket - Orbit

View from above orbital plane
View from above orbital plane
View from above satellite
View from above satellite

Ground track
Ground track

The orbit data is extracted from the following two-line orbital elements,

1 20578U 90036B   24196.24419425  .00000144  00000-0  13214-3 0  9996
2 20578  82.9416 241.3815 0011739 315.5546 112.9279 13.76509926719431
Epoch (UTC): 14 July 2024 05:51:38
Eccentricity: 0.0011739
inclination: 82.9416°
perigee height: 967 km
apogee height: 985 km
right ascension of ascending node: 241.3815°
argument of perigee: 315.5546°
revolutions per day: 13.76509926
mean anomaly at epoch: 112.9279°
orbit number at epoch: 71943

The dashed part of the orbit path shows where the satellite is in the earth's shadow,  

DLR